Time,TemperatureF,DewpointF,PressureIn,WindDirection,WindDirectionDegrees,WindSpeedMPH,WindSpeedGustMPH,Humidity,HourlyPrecipIn,Conditions,Clouds,dailyrainin,SoftwareType,DateUTC
2013-03-09 00:04:00,41.0,30.0,30.24,ESE,102,0.0,-999.0,64,-99.99,,,0.00,weatherlink.com 1.10,2013-03-09 05:04:00,
2013-03-09 00:19:00,40.6,31.0,30.23,ESE,102,0.0,-999.0,68,-99.99,,,0.00,weatherlink.com 1.10,2013-03-09 05:19:00,
2013-03-09 00:34:00,40.8,29.0,30.23,ESE,102,0.0,-999.0,64,-99.99,,,0.00,weatherlink.com 1.10,2013-03-09 05:34:00,
2013-03-09 00:50:00,44.2,27.0,30.22,SE,125,4.0,-999.0,52,-99.99,,,0.00,weatherlink.com 1.10,2013-03-09 05:50:00,
2013-03-09 01:05:00,46.3,28.0,30.21,ESE,119,0.0,-999.0,49,-99.99,,,0.00,weatherlink.com 1.10,2013-03-09 06:05:00,
2013-03-09 01:20:00,45.6,28.0,30.22,ESE,116,0.0,-999.0,51,-99.99,,,0.00,weatherlink.com 1.10,2013-03-09 06:20:00,
2013-03-09 01:35:00,45.2,28.0,30.22,SE,139,1.0,-999.0,51,-99.99,,,0.00,weatherlink.com 1.10,2013-03-09 06:35:00,
2013-03-09 01:50:00,45.5,28.0,30.23,ESE,117,1.0,-999.0,51,-99.99,,,0.00,weatherlink.com 1.10,2013-03-09 06:50:00,
2013-03-09 02:05:00,45.4,28.0,30.22,SE,134,2.0,-999.0,51,-99.99,,,0.00,weatherlink.com 1.10,2013-03-09 07:05:00,
2013-03-09 02:20:00,45.0,28.0,30.21,ESE,107,2.0,-999.0,52,-99.99,,,0.00,weatherlink.com 1.10,2013-03-09 07:20:00,
2013-03-09 02:35:00,44.9,29.0,30.21,SE,124,0.0,-999.0,54,-99.99,,,0.00,weatherlink.com 1.10,2013-03-09 07:35:00,
2013-03-09 02:50:00,44.7,29.0,30.21,ESE,122,0.0,-999.0,55,-99.99,,,0.00,weatherlink.com 1.10,2013-03-09 07:50:00,
2013-03-09 03:05:00,44.4,29.0,30.21,ESE,116,0.0,-999.0,56,-99.99,,,0.00,weatherlink.com 1.10,2013-03-09 08:05:00,
2013-03-09 03:20:00,43.8,29.0,30.21,ESE,122,0.0,-999.0,57,-99.99,,,0.00,weatherlink.com 1.10,2013-03-09 08:20:00,
2013-03-09 03:35:00,43.6,30.0,30.20,ESE,122,0.0,-999.0,59,-99.99,,,0.00,weatherlink.com 1.10,2013-03-09 08:35:00,
2013-03-09 03:50:00,43.4,30.0,30.20,ESE,119,0.0,-999.0,60,-99.99,,,0.00,weatherlink.com 1.10,2013-03-09 08:50:00,
2013-03-09 04:05:00,43.2,31.0,30.20,ESE,115,0.0,-999.0,62,-99.99,,,0.00,weatherlink.com 1.10,2013-03-09 09:05:00,
2013-03-09 04:20:00,43.3,31.0,30.21,SE,130,0.0,-999.0,62,-99.99,,,0.00,weatherlink.com 1.10,2013-03-09 09:20:00,
2013-03-09 04:35:00,43.2,31.0,30.20,SE,130,2.0,-999.0,62,-99.99,,,0.00,weatherlink.com 1.10,2013-03-09 09:35:00,
2013-03-09 04:50:00,42.8,31.0,30.21,ESE,110,0.0,-999.0,63,-99.99,,,0.00,weatherlink.com 1.10,2013-03-09 09:50:00,
2013-03-09 05:05:00,42.8,31.0,30.21,ESE,117,0.0,-999.0,63,-99.99,,,0.00,weatherlink.com 1.10,2013-03-09 10:05:00,
2013-03-09 05:20:00,42.7,31.0,30.21,ESE,110,0.0,-999.0,63,-99.99,,,0.00,weatherlink.com 1.10,2013-03-09 10:20:00,
2013-03-09 05:35:00,42.9,31.0,30.22,SE,143,1.0,-999.0,62,-99.99,,,0.00,weatherlink.com 1.10,2013-03-09 10:35:00,
2013-03-09 05:50:00,42.9,31.0,30.22,ESE,123,4.0,-999.0,62,-99.99,,,0.00,weatherlink.com 1.10,2013-03-09 10:50:00,
2013-03-09 06:05:00,42.7,30.0,30.22,ESE,104,0.0,-999.0,62,-99.99,,,0.00,weatherlink.com 1.10,2013-03-09 11:05:00,
2013-03-09 06:20:00,42.6,31.0,30.23,ESE,111,2.0,-999.0,64,-99.99,,,0.00,weatherlink.com 1.10,2013-03-09 11:20:00,
2013-03-09 06:35:00,42.3,32.0,30.22,SE,140,6.0,-999.0,66,-99.99,,,0.00,weatherlink.com 1.10,2013-03-09 11:35:00,
2013-03-09 06:50:00,42.2,32.0,30.23,ESE,117,0.0,-999.0,67,-99.99,,,0.00,weatherlink.com 1.10,2013-03-09 11:50:00,
2013-03-09 07:05:00,41.9,32.0,30.23,SE,126,2.0,-999.0,67,-99.99,,,0.00,weatherlink.com 1.10,2013-03-09 12:05:00,
2013-03-09 07:20:00,41.7,31.0,30.23,ESE,123,4.0,-999.0,67,-99.99,,,0.00,weatherlink.com 1.10,2013-03-09 12:20:00,
2013-03-09 07:35:00,41.8,31.0,30.23,SE,144,0.0,-999.0,66,-99.99,,,0.00,weatherlink.com 1.10,2013-03-09 12:35:00,
2013-03-09 07:50:00,42.9,31.0,30.23,SE,137,5.0,-999.0,63,-99.99,,,0.00,weatherlink.com 1.10,2013-03-09 12:50:00,
2013-03-09 08:05:00,44.0,31.0,30.23,SE,134,0.0,-999.0,60,-99.99,,,0.00,weatherlink.com 1.10,2013-03-09 13:05:00,
2013-03-09 08:20:00,45.1,31.0,30.24,SSE,153,7.0,-999.0,58,-99.99,,,0.00,weatherlink.com 1.10,2013-03-09 13:20:00,
2013-03-09 08:35:00,46.0,30.0,30.23,SSE,161,4.0,-999.0,55,-99.99,,,0.00,weatherlink.com 1.10,2013-03-09 13:35:00,
2013-03-09 08:50:00,46.9,30.0,30.23,SSE,151,9.0,-999.0,53,-99.99,,,0.00,weatherlink.com 1.10,2013-03-09 13:50:00,
2013-03-09 09:05:00,47.6,31.0,30.25,SSW,192,3.0,-999.0,52,-99.99,,,0.00,weatherlink.com 1.10,2013-03-09 14:05:00,
2013-03-09 09:20:00,47.5,30.0,30.25,South,171,0.0,-999.0,52,-99.99,,,0.00,weatherlink.com 1.10,2013-03-09 14:20:00,
2013-03-09 09:35:00,47.7,30.0,30.25,SSE,153,1.0,-999.0,51,-99.99,,,0.00,weatherlink.com 1.10,2013-03-09 14:35:00,
2013-03-09 09:50:00,48.4,30.0,30.26,SSE,150,0.0,-999.0,50,-99.99,,,0.00,weatherlink.com 1.10,2013-03-09 14:50:00,
2013-03-09 10:05:00,49.0,31.0,30.25,SSE,159,1.0,-999.0,51,-99.99,,,0.00,weatherlink.com 1.10,2013-03-09 15:05:00,
2013-03-09 10:20:00,49.5,31.0,30.25,SE,146,0.0,-999.0,50,-99.99,,,0.00,weatherlink.com 1.10,2013-03-09 15:20:00,
2013-03-09 10:35:00,50.1,32.0,30.25,SSE,159,4.0,-999.0,50,-99.99,,,0.00,weatherlink.com 1.10,2013-03-09 15:35:00,
2013-03-09 10:50:00,50.7,32.0,30.24,South,175,0.0,-999.0,49,-99.99,,,0.00,weatherlink.com 1.10,2013-03-09 15:50:00,
2013-03-09 11:05:00,51.5,32.0,30.22,South,177,5.0,-999.0,47,-99.99,,,0.00,weatherlink.com 1.10,2013-03-09 16:05:00,
2013-03-09 11:20:00,52.5,32.0,30.22,SSE,147,0.0,-999.0,46,-99.99,,,0.00,weatherlink.com 1.10,2013-03-09 16:20:00,
2013-03-09 11:35:00,53.3,32.0,30.23,SSW,194,4.0,-999.0,45,-99.99,,,0.00,weatherlink.com 1.10,2013-03-09 16:35:00,
2013-03-09 11:50:00,54.2,33.0,30.24,SSW,207,2.0,-999.0,45,-99.99,,,0.00,weatherlink.com 1.10,2013-03-09 16:50:00,
2013-03-09 12:05:00,55.6,34.0,30.23,South,186,6.0,-999.0,44,-99.99,,,0.00,weatherlink.com 1.10,2013-03-09 17:05:00,
2013-03-09 12:20:00,57.0,34.0,30.22,South,178,11.0,-999.0,43,-99.99,,,0.00,weatherlink.com 1.10,2013-03-09 17:20:00,
2013-03-09 12:35:00,58.6,35.0,30.22,South,182,6.0,-999.0,42,-99.99,,,0.00,weatherlink.com 1.10,2013-03-09 17:35:00,
2013-03-09 12:50:00,59.9,35.0,30.21,South,182,7.0,-999.0,39,-99.99,,,0.00,weatherlink.com 1.10,2013-03-09 17:50:00,
2013-03-09 13:05:00,59.5,36.0,30.22,SSE,162,2.0,-999.0,41,-99.99,,,0.00,weatherlink.com 1.10,2013-03-09 18:05:00,
2013-03-09 13:20:00,60.3,36.0,30.21,South,180,9.0,-999.0,40,-99.99,,,0.00,weatherlink.com 1.10,2013-03-09 18:20:00,
2013-03-09 13:35:00,60.6,37.0,30.20,SSE,164,6.0,-999.0,41,-99.99,,,0.00,weatherlink.com 1.10,2013-03-09 18:35:00,
2013-03-09 13:50:00,60.8,35.0,30.20,South,184,8.0,-999.0,39,-99.99,,,0.00,weatherlink.com 1.10,2013-03-09 18:50:00,
2013-03-09 14:05:00,61.8,36.0,30.18,South,184,5.0,-999.0,39,-99.99,,,0.00,weatherlink.com 1.10,2013-03-09 19:05:00,
2013-03-09 14:20:00,62.1,37.0,30.18,South,188,5.0,-999.0,39,-99.99,,,0.00,weatherlink.com 1.10,2013-03-09 19:20:00,
2013-03-09 14:35:00,61.6,36.0,30.17,SSE,164,5.0,-999.0,39,-99.99,,,0.00,weatherlink.com 1.10,2013-03-09 19:35:00,
2013-03-09 14:50:00,61.8,36.0,30.16,SSE,157,5.0,-999.0,38,-99.99,,,0.00,weatherlink.com 1.10,2013-03-09 19:50:00,
2013-03-09 15:05:00,61.5,35.0,30.15,South,180,7.0,-999.0,38,-99.99,,,0.00,weatherlink.com 1.10,2013-03-09 20:05:00,
2013-03-09 15:20:00,62.9,36.0,30.15,SSE,148,9.0,-999.0,37,-99.99,,,0.00,weatherlink.com 1.10,2013-03-09 20:20:00,
2013-03-09 15:35:00,63.0,36.0,30.14,SSE,160,5.0,-999.0,37,-99.99,,,0.00,weatherlink.com 1.10,2013-03-09 20:35:00,
2013-03-09 15:50:00,63.0,37.0,30.14,South,178,9.0,-999.0,38,-99.99,,,0.00,weatherlink.com 1.10,2013-03-09 20:50:00,
2013-03-09 16:05:00,62.5,37.0,30.14,South,178,10.0,-999.0,39,-99.99,,,0.00,weatherlink.com 1.10,2013-03-09 21:05:00,
2013-03-09 16:20:00,62.3,38.0,30.15,SSW,202,14.0,-999.0,40,-99.99,,,0.00,weatherlink.com 1.10,2013-03-09 21:20:00,
2013-03-09 16:35:00,62.3,38.0,30.15,South,187,6.0,-999.0,40,-99.99,,,0.00,weatherlink.com 1.10,2013-03-09 21:35:00,
2013-03-09 16:50:00,62.1,37.0,30.15,SSW,194,10.0,-999.0,40,-99.99,,,0.00,weatherlink.com 1.10,2013-03-09 21:50:00,
2013-03-09 17:05:00,61.7,38.0,30.15,South,188,6.0,-999.0,41,-99.99,,,0.00,weatherlink.com 1.10,2013-03-09 22:05:00,
2013-03-09 17:20:00,61.4,37.0,30.14,South,189,7.0,-999.0,41,-99.99,,,0.00,weatherlink.com 1.10,2013-03-09 22:20:00,
2013-03-09 17:35:00,62.1,38.0,30.14,SSW,193,8.0,-999.0,41,-99.99,,,0.00,weatherlink.com 1.10,2013-03-09 22:35:00,
2013-03-09 17:50:00,61.4,38.0,30.13,SSE,155,4.0,-999.0,42,-99.99,,,0.00,weatherlink.com 1.10,2013-03-09 22:50:00,
2013-03-09 18:06:00,60.7,38.0,30.13,South,191,3.0,-999.0,43,-99.99,,,0.00,weatherlink.com 1.10,2013-03-09 23:06:00,
2013-03-09 18:21:00,60.2,38.0,30.13,SSE,161,0.0,-999.0,44,-99.99,,,0.00,weatherlink.com 1.10,2013-03-09 23:21:00,
2013-03-09 18:36:00,59.5,38.0,30.13,South,170,1.0,-999.0,45,-99.99,,,0.00,weatherlink.com 1.10,2013-03-09 23:36:00,
2013-03-09 18:51:00,59.0,38.0,30.13,South,179,0.0,-999.0,45,-99.99,,,0.00,weatherlink.com 1.10,2013-03-09 23:51:00,
2013-03-09 19:06:00,58.5,38.0,30.13,SE,142,0.0,-999.0,46,-99.99,,,0.00,weatherlink.com 1.10,2013-03-10 00:06:00,
2013-03-09 19:21:00,57.8,37.0,30.13,SE,134,0.0,-999.0,46,-99.99,,,0.00,weatherlink.com 1.10,2013-03-10 00:21:00,
2013-03-09 19:36:00,57.8,37.0,30.13,SSE,161,1.0,-999.0,46,-99.99,,,0.00,weatherlink.com 1.10,2013-03-10 00:36:00,
2013-03-09 19:51:00,57.8,37.0,30.12,South,173,2.0,-999.0,46,-99.99,,,0.00,weatherlink.com 1.10,2013-03-10 00:51:00,
2013-03-09 20:06:00,57.6,37.0,30.12,SSE,164,4.0,-999.0,46,-99.99,,,0.00,weatherlink.com 1.10,2013-03-10 01:06:00,
2013-03-09 20:21:00,57.5,37.0,30.12,South,180,4.0,-999.0,47,-99.99,,,0.00,weatherlink.com 1.10,2013-03-10 01:21:00,
2013-03-09 20:36:00,57.3,37.0,30.12,SSE,159,0.0,-999.0,47,-99.99,,,0.00,weatherlink.com 1.10,2013-03-10 01:36:00,
2013-03-09 20:51:00,57.2,37.0,30.12,South,184,3.0,-999.0,47,-99.99,,,0.00,weatherlink.com 1.10,2013-03-10 01:51:00,
2013-03-09 21:06:00,57.3,38.0,30.12,SSE,157,0.0,-999.0,48,-99.99,,,0.00,weatherlink.com 1.10,2013-03-10 02:06:00,
2013-03-09 21:21:00,57.3,37.0,30.12,SSE,163,5.0,-999.0,47,-99.99,,,0.00,weatherlink.com 1.10,2013-03-10 02:21:00,
2013-03-09 21:36:00,57.1,37.0,30.11,SSE,150,1.0,-999.0,48,-99.99,,,0.00,weatherlink.com 1.10,2013-03-10 02:36:00,
2013-03-09 21:51:00,57.1,37.0,30.11,SE,133,4.0,-999.0,48,-99.99,,,0.00,weatherlink.com 1.10,2013-03-10 02:51:00,
2013-03-09 22:06:00,57.0,37.0,30.11,SE,142,2.0,-999.0,47,-99.99,,,0.00,weatherlink.com 1.10,2013-03-10 03:06:00,
2013-03-09 22:21:00,56.9,37.0,30.10,SSE,147,2.0,-999.0,47,-99.99,,,0.00,weatherlink.com 1.10,2013-03-10 03:21:00,
2013-03-09 22:36:00,56.6,36.0,30.10,South,169,0.0,-999.0,47,-99.99,,,0.00,weatherlink.com 1.10,2013-03-10 03:36:00,
2013-03-09 22:51:00,56.5,36.0,30.09,SSE,155,1.0,-999.0,46,-99.99,,,0.00,weatherlink.com 1.10,2013-03-10 03:51:00,
2013-03-09 23:06:00,56.4,36.0,30.09,SSE,163,4.0,-999.0,46,-99.99,,,0.00,weatherlink.com 1.10,2013-03-10 04:06:00,
2013-03-09 23:21:00,56.6,36.0,30.09,SSE,164,4.0,-999.0,46,-99.99,,,0.00,weatherlink.com 1.10,2013-03-10 04:21:00,
2013-03-09 23:36:00,56.3,36.0,30.09,SSE,161,6.0,-999.0,46,-99.99,,,0.00,weatherlink.com 1.10,2013-03-10 04:36:00,
2013-03-09 23:51:00,56.0,35.0,30.07,SSE,162,5.0,-999.0,46,-99.99,,,0.00,weatherlink.com 1.10,2013-03-10 04:51:00,